Location: Cointrin
(46.2167°N, 6.1167°E)
Time: 16:29:43
(UTC+00:00)

Okean O Rocket - Visible Passes

Search period start: 30 September 2023 00:00
Search period end: 10 October 2023 00:00
Orbit: 621 x 640 km, 98.1° (Epoch: 29 September)

Date Brightness Start Highest point End Pass type
(mag) Time Alt. Az. Time Alt. Az. Time Alt. Az.
30 Sep 2.1 18:36:30 19° SE 18:39:15 41° ENE 18:43:25 10° N visible
30 Sep 3.8 20:13:54 17° SW 20:15:42 22° W 20:19:10 10° NW visible
01 Oct 1.6 18:57:32 28° SSE 18:59:45 65° ENE 19:04:10 10° N visible
01 Oct 4.3 20:34:55 12° WSW 20:36:30 14° W 20:38:51 10° WNW visible
02 Oct 3.5 17:42:27 10° E 17:44:38 14° ENE 17:46:48 10° NNE visible
02 Oct 1.7 19:18:32 36° S 19:20:19 79° WSW 19:24:47 10° NNW visible
03 Oct 3.0 18:02:09 12° ESE 18:04:58 20° ENE 18:08:13 10° NNE visible
03 Oct 2.5 19:39:33 35° SSW 19:40:56 48° W 19:45:16 10° NNW visible
04 Oct 2.5 18:23:10 20° ESE 18:25:22 30° ENE 18:29:15 10° N visible
04 Oct 3.3 20:00:34 27° WSW 20:01:37 30° W 20:05:33 10° NW visible
05 Oct 1.9 18:44:11 31° ESE 18:45:49 47° ENE 18:50:06 10° N visible
05 Oct 3.9 20:21:34 19° WSW 20:22:21 19° W 20:25:35 10° NW visible
06 Oct 1.5 19:05:11 49° SE 19:06:20 75° ENE 19:10:47 10° N visible
06 Oct 4.5 20:42:34 12° W 20:43:10 12° W 20:44:57 10° WNW visible
07 Oct 3.3 17:48:47 11° E 17:51:08 15° ENE 17:53:43 10° NNE visible
07 Oct 1.8 19:26:11 57° SSW 19:26:54 68° WSW 19:31:21 10° NNW visible
08 Oct 2.8 18:09:48 18° E 18:11:29 23° ENE 18:14:57 10° NNE visible
08 Oct 2.7 19:47:11 41° WSW 19:47:32 42° W 19:51:47 10° NNW visible
09 Oct 2.3 18:30:47 30° E 18:31:53 34° ENE 18:35:55 10° N visible
09 Oct 3.5 20:08:12 26° W 20:08:13 26° W 20:11:59 10° NW visible
